Probability
0 0 0 0 0 0 0 0 0 0 0 0 0 0 0 0 0 0 0 0 0 0 0 0 0 0 0 0 0 0 0 0 0 0 0 0 0 0
0 0 0 0 0 0 0 0 0 0 0 0 0 0 0 0 0 0 0 0 0 0 0 0 0 0 0 0 0 0 0 0 0 0 0 0 0 0
0 0 0 0 0 0 0 0 0 0 0 0 0 0 0 0 0 0 0 0 0 0 0 0 0 0 0 0 0 0 0 0 0 0 0 0 0 0
0 0 0 0 0 0 0 0 0 0 0 0 0 0 0 0 0 0 0 0 0 0 0 0 0 0 0 0 0 0 0 0 0 0 0 0 0 0
0 0 0 0 0 0 0 0 0 0 0 0 0 0 0 0 0 0 0 0 0 0 0 0 0 0 0 0 0 0 0 0 0 0 0 0 0 0
0 0 0 0 0 0 0 0 0 0 0 0 0 0 0 0 0 0 0 0 0 0 0 0 0 0 0 0 0 0 0 0 0 0 0 0 0 0
0 0 0 0 0 0 0 0 0 0 0 0 0 0 0 0 0 0 0 0 0 0 0 0 0 0 0 0 0 0 0 0 0 0 0 0 0 0
0 0 0 0 0 0 0 0 0 0 0 0 0 0 0 0 0 0 0 0 0 0 0 0 0 0 0 0 0 0 0 0 0 0 0 0 0 0
0 0 0 0 0 0 0 0 0 0 0 0 0 0 0 0 0 0 0 0 0 0 0 0 0 0 0 0 0 0 0 0 0 0 0 0 0 0
0 0 0 0 0 0 0 0 0 0 0 0 0 0 0 0 0 0 0 0 0 0 0 0 0 0 0 0 0 0 0 0 0 0 0 0 0 0
0 0 0 0 0 0 0 0 0 0 0 0 0 0 0 0 0 0 0 0 0 0 0 0 0 0 0 0 0 0 0 0 0 0 0 0 0 0
0 0 0 0 0 0 0 0 0 0 0 0 0 0 0 0 0 0 0 0 0 0 0 0 0 0 0 0 0 0 0 0 0 0 0 0 0 0
0 1 1 0 0 0 0 0 0 0 0 0 0 0 0 0 0 0 0 0 0 0 0 0 0 0 0 0 0 0 0 0 0 0 0 0 0 0
1 2 1 0 0 0 0 0 0 0 0 0 0 0 0 0 0 0 0 0 0 0 0 0 0 0 0 0 0 0 0 0 0 0 0 0 0 0
2 2 1 0 0 0 0 0 0 0 0 0 0 0 0 0 0 0 0 0 0 0 0 0 0 0 0 0 0 0 0 0 0 0 0 0 0 0
1 1 0 0 0 0 0 0 0 0 0 0 0 0 0 0 0 0 0 0 0 0 0 0 0 0 0 0 0 0 0 0 0 0 0 0 0 0
0 0 0 0 0 0 0 0 0 0 0 0 0 0 0 0 0 0 0 0 0 0 0 0 0 0 0 0 0 0 0 0 0 0 0 0 0 0
0 0 0 0 0 0 0 0 0 0 0 0 0 0 0 0 0 0 0 0 0 0 0 0 0 0 0 0 0 0 0 0 0 0 0 0 0 0
0 0 0 0 0 0 0 0 0 0 0 0 0 0 0 0 0 0 0 0 0 0 0 0 0 0 0 0 0 0 0 0 0 0 0 0 0 0
0 0 0 0 0 0 0 0 0 0 0 0 0 0 0 0 0 0 0 0 0 0 0 0 0 0 0 0 0 0 0 0 0 0 0 0 0 0
0 0 0 0 0 0 0 0 0 0 0 0 0 0 0 0 0 0 0 0 0 0 0 0 0 0 0 0 0 0 0 0 0 0 0 0 0 0
0 0 0 0 0 0 0 0 0 0 0 0 0 0 0 0 0 0 0 0 0 0 0 0 0 0 0 0 0 0 0 0 0 0 0 0 0 0
0 0 0 0 0 0 0 0 0 0 0 0 0 0 0 0 0 0 0 0 0 0 0 0 0 0 0 0 0 0 0 0 0 0 0 0 0 0
Wind_Speed
6 5 4 3 3 3 3 3 4 3 3 3 3 3 4 4 6 5 6 8 10 10 10 10 10 10 10 11 10 10 10 10 10 10 11 11 11 11
5 5 5 3 3 3 3 3 3 4 4 3 3 2 2 4 5 5 6 8 9 9 10 10 10 10 10 10 10 10 10 10 11 11 11 11 11 12
5 6 6 4 3 3 3 3 3 3 4 3 2 2 3 4 3 3 4 4 5 8 9 9 9 8 8 9 9 9 9 10 10 10 11 11 12 12
6 6 5 4 4 3 3 4 4 4 4 4 2 2 3 3 3 3 3 3 4 6 8 8 8 8 8 9 9 9 9 9 10 10 11 11 12 12
6 6 5 5 4 3 4 4 3 3 3 3 3 2 2 1 1 2 2 2 3 4 6 7 8 8 8 8 8 8 9 9 10 10 11 11 12 12
5 5 4 5 5 4 4 4 4 3 3 3 3 2 2 2 1 2 2 2 3 3 3 3 5 6 7 8 8 9 9 10 10 10 11 11 11 12
3 3 3 4 4 4 3 3 3 3 2 3 3 2 2 2 2 2 3 2 3 2 2 2 2 3 4 5 7 8 9 9 9 10 11 11 11 12
3 3 2 3 4 4 4 4 4 4 4 3 3 3 3 3 2 2 2 2 3 1 2 3 2 3 4 4 6 8 9 9 10 10 10 11 12 12
2 2 1 1 1 1 1 2 3 4 5 4 4 4 4 3 2 2 3 3 4 2 2 3 2 4 4 5 7 8 8 9 9 10 10 11 11 11
2 1 1 0 0 1 1 1 1 1 2 3 3 4 3 2 3 3 3 3 3 2 2 4 3 3 4 5 7 8 8 8 8 9 9 10 10 10
2 2 1 1 1 1 1 1 0 1 1 0 0 1 1 1 0 0 1 1 3 2 2 3 3 3 4 4 5 6 7 8 8 9 9 10 10 9
2 2 3 2 2 1 1 1 1 1 1 1 2 2 2 2 1 1 1 2 2 3 1 2 3 2 4 3 3 4 5 7 9 10 10 10 10 7
3 3 3 4 4 4 3 2 1 1 1 1 2 2 2 2 2 1 2 2 3 4 2 2 3 2 4 4 4 4 5 5 6 7 8 9 10 7
4 3 4 7 7 6 4 4 4 3 2 2 2 2 3 3 3 3 3 3 4 5 4 3 3 3 4 5 6 5 5 5 5 6 6 7 9 10
5 8 8 8 7 6 8 7 5 3 3 3 3 3 3 3 3 3 3 3 4 4 4 3 4 4 4 6 6 6 6 6 5 5 6 7 7 7
5 7 8 9 7 7 6 5 4 4 3 3 3 3 3 3 3 3 3 4 4 4 4 4 4 5 5 7 7 8 7 6 6 7 7 7 7 7
4 5 5 5 6 5 5 5 4 4 4 3 3 3 3 4 4 4 3 3 3 4 6 4 4 5 7 7 7 7 7 7 7 7 7 8 8 8
6 6 6 5 5 5 5 5 4 4 4 4 3 4 4 4 4 4 4 4 4 5 6 5 6 5 4 4 7 7 7 7 7 7 7 8 9 8
7 6 5 5 5 4 4 4 4 5 4 4 4 4 4 4 4 5 5 5 5 6 6 5 5 5 7 8 5 5 6 7 7 7 7 7 9 9
6 5 5 4 4 4 4 4 4 5 4 4 4 4 4 5 5 5 5 6 6 6 6 5 5 5 6 7 7 8 7 7 7 8 8 8 8 9
5 4 4 4 4 4 4 4 4 4 5 5 4 5 5 5 5 5 6 7 6 6 7 7 7 8 6 5 6 7 7 7 8 8 8 8 8 7
4 4 4 4 4 4 4 4 4 4 5 5 5 5 5 5 6 7 6 6 6 6 7 7 7 6 5 5 8 9 9 9 8 9 11 9 6 6
3 3 3 4 4 4 4 4 5 5 5 5 5 5 5 5 5 5 6 6 6 7 7 7 7 6 6 6 7 8 10 10 8 8 7 7 10 13
Wind_Direction
199 196 198 201 195 199 188 178 176 215 252 255 252 244 230 230 234 228 234 237 233 232 232 234 237 239 242 244 243 243 245 247 248 249 251 253 256 259
196 196 202 202 199 199 200 200 193 195 232 246 243 253 246 242 227 226 235 238 236 234 234 236 239 241 243 245 246 245 245 246 247 248 249 249 250 253
196 198 205 197 195 198 195 197 203 193 225 256 248 252 247 254 251 235 238 237 240 236 236 237 239 242 243 244 246 247 248 250 250 252 252 252 251 252
197 195 205 197 198 202 199 208 211 206 215 244 253 242 244 254 256 253 252 244 244 241 232 234 237 240 242 244 244 244 246 249 250 251 252 253 254 253
190 193 200 193 207 208 207 211 213 211 211 227 249 245 255 270 271 269 268 269 260 250 237 237 240 244 246 245 243 245 248 249 251 252 253 254 256 256
183 187 189 194 208 208 211 216 209 203 202 219 242 251 253 259 242 251 267 258 267 271 263 257 249 248 248 247 246 247 248 249 250 252 254 255 256 257
174 182 189 192 201 205 211 215 205 208 211 224 242 248 248 237 239 235 251 270 267 250 260 259 255 258 261 257 254 253 254 253 255 256 257 256 256 255
183 188 196 207 218 217 220 215 202 205 216 220 234 240 254 247 251 238 244 258 271 235 244 269 246 262 264 262 267 265 263 261 262 262 261 261 259 257
174 181 205 223 201 219 225 226 226 228 215 214 230 240 248 241 230 240 236 240 254 264 233 263 245 260 268 270 264 266 266 268 270 271 270 268 265 262
144 160 170 187 241 209 207 222 233 249 239 226 236 250 255 250 224 236 247 257 266 259 219 259 265 270 285 279 270 268 272 274 276 277 276 274 273 271
91 79 89 72 8 103 169 199 116 356 10 132 213 301 335 1 72 168 247 253 270 263 212 248 271 285 282 276 276 276 278 277 275 275 275 275 275 276
67 54 48 43 31 102 153 164 170 314 3 37 36 9 359 11 70 194 237 260 273 275 237 252 272 287 284 269 282 291 288 282 279 278 277 276 278 280
77 56 42 54 63 72 89 82 53 40 44 41 33 20 13 3 346 304 265 249 257 262 262 246 267 267 265 285 289 286 284 289 294 289 281 279 279 269
79 64 55 56 60 59 63 54 54 61 56 48 35 13 0 351 337 324 303 280 264 268 276 255 258 268 276 282 285 286 286 287 287 288 293 293 285 272
74 67 60 58 59 56 49 48 49 46 39 33 16 354 341 332 333 330 330 320 302 287 285 272 267 274 267 272 280 284 294 292 285 287 295 295 293 290
70 62 59 58 56 49 42 39 40 41 41 26 3 347 346 348 349 342 330 331 319 312 306 296 286 276 273 272 273 279 282 284 289 292 295 294 290 282
79 62 53 46 45 40 36 33 30 30 28 18 7 357 351 349 343 339 328 325 317 315 317 320 312 290 269 269 276 278 286 288 289 296 298 296 292 287
74 64 54 46 42 34 29 24 23 18 9 3 2 356 347 341 337 336 330 324 317 313 312 315 319 315 304 276 244 272 286 292 299 299 295 292 294 294
67 63 55 46 38 31 25 18 10 3 359 360 357 350 341 335 330 328 326 320 314 309 308 310 313 313 311 312 302 256 282 297 300 298 293 288 289 294
58 56 47 37 29 22 16 10 3 360 359 355 351 345 340 332 327 324 320 316 311 308 308 309 310 309 302 303 302 299 285 287 295 297 299 298 291 285
51 46 38 29 21 15 8 3 358 354 351 347 345 342 337 332 326 322 319 317 312 311 313 313 313 304 296 289 287 291 297 282 273 283 297 299 300 300
46 40 30 23 16 12 5 359 354 350 346 343 338 334 330 325 322 320 320 320 316 313 311 309 313 313 306 299 301 304 308 311 297 274 263 258 282 296
37 34 27 19 13 5 359 354 350 344 341 337 333 329 326 323 320 317 318 318 316 316 317 316 318 314 308 303 304 307 312 317 317 318 312 294 265 262